Wind_Speed
14 14 15 16 17 18 18 20 21 21 22 24 24 25 25 26 27 28 29 30 30 30 30 30 30 30 30 31 32 32 32 32 33 33 34 35 35 35 35 35 35 35 35 36
12 12 13 14 15 15 16 17 19 20 19 21 22 24 24 24 25 27 28 29 30 30 29 30 31 31 32 32 32 32 33 33 33 34 34 34 34 35 35 35 35 36 36 37
11 11 12 12 13 14 14 15 16 18 19 20 21 22 22 23 24 26 28 28 29 29 29 30 30 31 32 32 33 33 34 34 34 34 34 35 35 35 35 36 36 36 36 37
10 10 10 10 11 11 12 13 14 16 17 17 19 20 21 21 23 24 26 28 28 30 30 31 31 32 32 32 33 34 33 33 33 33 34 34 34 34 35 35 36 35 36 36
9 8 9 9 9 10 10 11 12 14 15 16 17 19 20 21 22 23 24 26 27 29 30 31 31 32 32 32 32 32 32 32 33 33 33 34 34 35 35 35 36 36 37 37
6 6 6 7 7 8 9 10 11 12 14 16 17 18 20 20 21 22 24 25 26 27 28 29 29 29 29 30 31 31 32 33 33 33 34 34 35 35 36 36 36 37 37 37
5 4 4 5 6 7 8 9 10 11 13 14 16 17 19 20 20 21 22 23 25 25 26 27 28 28 28 29 30 31 32 32 33 34 34 35 36 36 37 37 37 37 38 38
2 3 3 4 6 7 8 9 11 12 13 13 15 17 18 19 19 19 20 22 23 24 25 26 27 28 29 30 30 31 32 33 34 34 35 36 37 37 37 37 38 39 39 39
1 2 3 4 5 7 8 9 10 12 13 14 15 17 18 19 20 20 20 21 22 23 24 25 26 27 28 29 30 31 32 33 33 34 35 36 36 37 37 38 39 40 40 40
1 3 4 5 6 6 8 9 10 11 12 12 13 15 17 17 18 19 20 21 22 23 24 26 27 27 28 29 30 31 32 33 34 34 35 36 36 37 38 38 39 40 41 41
2 3 4 4 5 5 7 8 9 10 11 11 12 13 16 17 18 19 19 20 21 22 23 25 26 27 28 29 30 31 31 32 33 34 35 36 37 37 38 39 40 41 41 41
3 3 4 5 6 6 7 8 10 10 11 12 12 13 16 17 18 18 19 20 21 22 23 24 25 26 28 29 30 31 31 32 33 33 34 35 36 37 38 39 40 40 40 40
5 5 6 7 8 8 9 10 11 11 12 12 13 14 17 18 18 18 19 20 21 22 23 24 26 27 28 29 30 31 32 33 33 34 35 35 36 37 38 39 39 39 39 39
7 7 8 9 9 10 10 11 12 13 13 14 14 15 18 19 18 19 19 20 21 23 24 25 27 28 29 30 31 32 33 33 34 35 35 36 36 37 37 38 38 38 39 39
9 9 10 10 11 12 12 13 15 15 16 16 15 17 19 21 21 22 22 23 23 24 26 27 28 29 30 31 32 33 33 34 34 34 35 35 36 36 37 37 38 38 38 39
12 12 13 14 15 15 15 16 17 18 18 19 19 20 22 23 24 24 25 26 26 27 28 28 29 30 31 32 32 33 34 34 34 35 35 36 36 37 37 37 38 38 39 39
15 15 16 16 17 17 17 18 20 21 21 22 23 23 25 26 26 27 27 28 29 30 30 31 32 32 33 33 33 34 35 35 35 36 36 36 37 37 37 37 38 38 38 39
18 19 19 18 19 20 21 22 23 24 25 26 26 27 27 28 28 29 30 31 31 32 33 34 34 34 35 35 35 36 36 37 37 37 37 37 37 37 38 38 38 38 38 39
21 22 23 23 23 23 23 25 26 27 27 28 29 29 29 30 30 31 33 34 34 35 36 36 36 37 37 37 37 37 37 37 37 38 38 38 38 37 38 38 38 38 38 38
24 24 25 26 27 26 26 27 28 29 30 31 31 32 32 33 33 33 35 36 37 38 38 38 38 38 38 39 38 38 38 38 38 38 38 39 39 39 39 39 39 38 39 39
26 27 28 28 29 29 30 31 32 32 33 34 34 35 35 36 36 36 37 38 39 39 40 40 40 40 39 39 39 39 39 39 39 39 39 39 40 40 39 39 39 39 39 39
29 30 31 32 33 33 34 34 35 35 36 37 37 37 38 38 39 39 40 40 41 41 41 41 41 41 41 41 40 40 40 41 41 41 41 41 41 40 40 39 39 39 39 39
33 34 35 36 35 36 37 38 38 39 39 39 40 40 41 41 41 41 41 41 41 41 41 41 41 41 41 42 42 42 42 43 43 43 42 41 41 41 40 40 40 40 40 40
36 37 39 38 38 39 40 41 41 42 42 42 42 43 43 43 43 43 43 43 43 42 42 42 42 42 42 43 43 43 43 43 43 42 41 41 41 41 41 41 40 40 40 40
39 41 42 42 42 43 42 43 44 45 45 45 45 45 45 44 44 44 44 44 44 43 43 43 43 43 43 43 43 43 43 42 41 41 40 41 41 41 41 41 41 41 41 41
41 43 44 45 45 46 46 46 46 47 47 46 46 46 46 46 46 46 45 45 45 44 44 44 44 43 43 43 43 43 43 42 41 41 40 40 41 41 41 41 41 41 41 41
Wind_Direction
177 184 190 196 201 207 213 219 223 225 228 230 232 234 236 238 240 242 244 246 249 252 255 258 260 262 264 266 268 271 273 275 276 277 278 279 281 282 283 283 283 282 282 283
178 185 190 196 202 208 212 219 225 226 229 232 235 238 239 241 242 245 247 249 252 255 256 259 261 264 267 268 270 272 274 275 276 276 278 279 281 282 283 284 284 283 283 284
177 183 187 194 202 210 214 218 225 231 234 236 239 242 243 244 247 249 250 252 254 256 259 261 264 266 268 269 271 274 275 276 276 277 278 279 281 282 283 284 285 285 286 286
175 183 190 198 207 214 219 223 231 236 239 241 243 243 244 249 253 255 255 256 257 258 261 262 264 266 269 271 273 275 275 276 278 279 280 281 281 283 284 285 286 285 285 286
169 180 191 201 210 217 224 230 235 239 242 246 248 251 252 254 257 259 259 259 260 261 263 265 266 267 268 270 273 274 275 277 279 280 282 282 283 284 284 285 286 286 286 286
162 178 195 203 213 224 230 235 241 246 249 251 255 260 261 261 260 261 262 263 264 264 265 265 266 268 270 271 273 275 276 278 280 281 282 283 284 284 285 285 285 286 286 286
169 188 206 217 225 232 238 245 250 253 253 257 261 265 267 267 266 266 266 266 266 267 267 267 269 270 271 273 275 276 278 280 281 282 283 284 285 285 286 286 285 286 287 287
172 203 227 238 244 246 251 255 258 261 262 264 266 269 271 271 269 269 269 269 268 268 269 270 272 272 273 274 276 277 279 281 282 283 284 285 285 285 285 285 285 286 287 288
211 240 249 253 256 260 260 261 264 268 271 271 270 272 272 273 272 272 272 272 272 272 273 274 275 275 276 277 278 279 280 281 283 283 285 285 285 285 286 286 287 287 288 288
308 290 283 277 274 272 269 271 274 274 276 274 273 275 277 277 278 276 277 277 276 276 276 277 277 278 278 279 279 280 281 282 283 284 285 285 285 286 286 287 287 287 288 288
322 310 301 293 288 285 283 283 285 284 282 282 282 284 282 281 281 282 282 281 280 281 281 281 281 281 281 281 281 282 282 283 284 285 286 286 287 287 287 288 288 288 288 288
320 315 306 302 299 295 292 288 288 287 287 287 289 290 286 284 284 285 284 283 284 284 284 284 284 284 284 284 284 284 284 285 285 287 288 288 289 289 288 289 288 288 289 288
315 310 304 298 296 296 295 294 292 290 289 288 290 292 289 288 290 291 289 288 287 287 286 285 285 284 284 284 284 285 285 285 286 288 289 290 290 291 290 290 289 289 289 289
304 303 300 298 297 296 296 295 295 294 293 291 290 288 289 292 296 296 293 291 289 288 288 286 286 286 286 286 286 287 287 287 288 288 289 290 291 292 291 290 290 289 289 289
297 295 295 294 292 291 292 293 293 295 294 294 292 290 289 291 294 294 293 292 290 289 289 289 288 288 288 288 288 289 289 289 290 291 291 292 293 293 293 292 292 291 290 290
296 294 293 293 292 291 291 290 291 292 293 294 292 292 291 292 293 293 291 290 290 290 290 291 290 290 291 291 291 291 291 291 292 292 293 293 294 293 293 293 292 291 291 291
295 294 293 293 293 293 291 291 292 293 293 292 293 293 292 293 293 293 291 290 289 289 290 291 291 290 291 291 292 292 292 292 293 292 292 293 293 293 292 292 292 292 292 292
294 293 292 292 291 291 293 291 291 292 293 293 293 293 294 294 293 292 292 291 290 290 290 290 290 290 291 291 292 292 292 293 293 293 292 293 293 293 292 292 292 292 292 292
292 292 292 292 292 292 292 292 292 293 293 294 294 294 294 294 293 293 292 291 291 291 291 290 290 291 291 291 292 292 292 292 292 292 292 292 293 293 293 293 293 292 291 292
291 292 293 294 294 295 294 293 293 293 294 294 293 294 294 293 292 292 292 292 292 291 291 291 291 292 291 291 291 291 291 291 291 291 291 291 292 293 293 292 292 292 292 292
289 290 292 293 294 295 295 295 295 295 296 296 296 295 294 294 294 293 291 292 292 292 292 291 291 291 291 291 290 290 290 290 290 291 291 291 292 292 293 292 292 292 292 293
288 289 290 291 294 296 295 295 295 295 295 295 295 295 295 295 295 294 293 292 292 292 292 292 291 290 290 289 289 289 289 289 290 290 291 291 291 291 292 292 292 292 293 293
286 288 289 290 293 294 294 294 294 294 295 295 295 295 295 295 295 294 294 293 292 291 291 291 291 290 289 289 289 290 290 290 290 290 290 290 290 291 292 292 292 292 293 293
285 287 288 289 291 291 292 293 293 294 294 295 295 295 294 295 294 294 294 294 293 291 290 290 290 290 290 290 289 290 290 290 290 290 290 290 290 291 292 292 292 292 292 293
288 288 287 287 288 289 291 292 292 293 293 294 294 294 294 294 293 293 293 292 292 291 290 289 289 289 290 290 289 290 290 289 289 289 289 289 290 290 290 291 291 291 291 292
290 290 289 289 289 289 290 291 291 292 293 293 293 293 293 293 293 293 292 292 291 290 289 288 288 288 289 289 289 289 289 288 289 289 289 289 290 290 290 290 291 291 291 291
Height
5721 5724 5727 5730 5733 5736 5739 5742 5745 5748 5750 5753 5755 5758 5760 5762 5764 5766 5768 5770 5772 5774 5775 5776 5776 5777 5777 5777 5776 5776 5775 5774 5773 5772 5770 5769 5767 5765 5764 5762 5760 5758 5756 5754
5723 5725 5727 5729 5732 5735 5738 5740 5743 5745 5747 5750 5752 5755 5756 5758 5760 5761 5763 5765 5766 5768 5769 5769 5769 5770 5770 5770 5769 5769 5768 5767 5766 5764 5763 5761 5760 5758 5756 5754 5752 5750 5748 5746
5724 5727 5727 5730 5732 5734 5736 5739 5741 5743 5745 5747 5750 5752 5753 5755 5755 5757 5758 5759 5760 5762 5762 5763 5763 5763 5763 5763 5763 5762 5761 5760 5758 5757 5755 5754 5752 5750 5748 5746 5744 5741 5739 5737
5725 5726 5728 5730 5732 5734 5736 5738 5740 5742 5743 5745 5747 5749 5751 5751 5751 5752 5753 5753 5754 5755 5756 5756 5757 5756 5756 5756 5755 5754 5753 5752 5751 5749 5748 5746 5744 5742 5740 5738 5736 5734 5731 5729
5726 5727 5729 5731 5732 5733 5735 5736 5738 5739 5741 5743 5744 5745 5748 5747 5747 5747 5747 5748 5748 5749 5749 5749 5750 5750 5749 5748 5748 5747 5746 5745 5743 5742 5740 5738 5737 5735 5732 5730 5728 5725 5723 5720
5728 5729 5730 5731 5732 5733 5734 5736 5737 5737 5738 5740 5741 5742 5743 5743 5743 5743 5742 5742 5742 5742 5743 5743 5743 5742 5742 5741 5741 5740 5738 5737 5735 5734 5732 5730 5729 5726 5724 5722 5719 5717 5714 5712
5729 5730 5730 5731 5732 5733 5734 5735 5736 5736 5736 5737 5738 5737 5739 5738 5737 5737 5737 5737 5737 5737 5737 5736 5736 5736 5735 5734 5733 5732 5731 5729 5728 5726 5724 5722 5720 5718 5716 5713 5711 5708 5705 5703
5730 5731 5731 5731 5732 5732 5732 5733 5735 5734 5734 5734 5734 5734 5735 5733 5732 5732 5732 5731 5731 5731 5730 5730 5729 5729 5728 5727 5726 5724 5723 5722 5720 5718 5716 5714 5712 5709 5707 5704 5702 5699 5696 5693
5731 5731 5731 5731 5731 5731 5731 5731 5732 5731 5731 5731 5730 5730 5730 5728 5727 5727 5726 5726 5725 5725 5724 5723 5722 5721 5721 5719 5718 5717 5715 5713 5711 5709 5707 5705 5703 5700 5698 5695 5692 5690 5687 5684
5731 5731 5731 5730 5730 5730 5730 5729 5729 5729 5728 5727 5727 5726 5725 5723 5722 5722 5721 5720 5719 5719 5718 5717 5716 5714 5713 5712 5710 5709 5707 5705 5703 5701 5698 5696 5694 5691 5688 5686 5683 5680 5677 5674
5730 5731 5730 5729 5729 5728 5728 5728 5726 5725 5725 5724 5723 5725 5721 5719 5718 5717 5716 5715 5714 5713 5711 5710 5708 5707 5705 5704 5702 5700 5698 5696 5694 5692 5690 5687 5684 5682 5679 5676 5673 5670 5667 5663
5730 5730 5729 5728 5727 5726 5726 5725 5724 5724 5722 5720 5719 5722 5716 5714 5712 5711 5710 5709 5708 5707 5705 5703 5702 5700 5698 5696 5694 5692 5690 5688 5686 5683 5681 5678 5675 5672 5669 5666 5662 5659 5656 5653
5729 5729 5728 5727 5728 5725 5723 5722 5721 5720 5719 5717 5716 5718 5712 5709 5708 5707 5705 5704 5702 5700 5698 5696 5694 5692 5690 5688 5686 5684 5681 5679 5677 5674 5672 5669 5666 5662 5659 5655 5652 5649 5645 5642
5727 5727 5726 5726 5723 5722 5721 5719 5717 5716 5715 5714 5713 5712 5708 5705 5703 5702 5700 5698 5696 5694 5691 5689 5687 5685 5682 5680 5678 5675 5673 5670 5668 5665 5662 5659 5656 5652 5649 5645 5641 5638 5635 5632
5725 5724 5722 5721 5719 5718 5717 5716 5714 5712 5711 5709 5709 5706 5704 5700 5699 5696 5694 5692 5689 5687 5685 5682 5680 5677 5675 5672 5669 5667 5664 5661 5659 5656 5653 5649 5646 5642 5638 5635 5631 5628 5624 5621
5721 5720 5719 5718 5715 5714 5713 5711 5709 5707 5705 5704 5702 5701 5698 5695 5693 5690 5688 5686 5683 5681 5678 5675 5673 5670 5667 5664 5661 5658 5655 5652 5649 5646 5643 5639 5636 5632 5629 5625 5621 5618 5614 5611
5717 5716 5715 5713 5711 5709 5709 5706 5704 5702 5700 5698 5696 5695 5691 5689 5686 5683 5681 5678 5676 5673 5670 5667 5665 5662 5658 5655 5652 5649 5646 5643 5639 5636 5633 5629 5626 5622 5619 5615 5611 5607 5604 5600
5713 5710 5709 5708 5707 5704 5705 5700 5698 5696 5694 5691 5689 5687 5684 5682 5679 5676 5673 5670 5667 5665 5662 5659 5655 5652 5649 5646 5643 5640 5636 5633 5630 5626 5622 5619 5615 5612 5608 5604 5601 5597 5593 5589
5706 5704 5702 5701 5699 5698 5697 5693 5690 5688 5687 5684 5681 5679 5676 5673 5671 5668 5664 5661 5658 5655 5652 5649 5646 5642 5639 5636 5633 5630 5626 5623 5619 5616 5612 5608 5605 5601 5598 5594 5590 5586 5583 5579
5700 5698 5696 5693 5691 5690 5690 5686 5682 5681 5678 5676 5673 5670 5667 5664 5662 5661 5656 5652 5649 5645 5642 5639 5635 5632 5629 5625 5622 5619 5616 5612 5609 5605 5601 5598 5594 5591 5587 5583 5580 5576 5572 5568
5693 5690 5689 5685 5682 5681 5680 5676 5674 5673 5670 5666 5663 5660 5658 5655 5652 5650 5646 5642 5638 5634 5631 5627 5624 5621 5618 5614 5611 5608 5605 5601 5598 5594 5591 5587 5583 5580 5576 5572 5569 5565 5561 5557
5684 5682 5680 5677 5675 5675 5670 5666 5665 5662 5659 5655 5652 5650 5647 5644 5641 5638 5634 5631 5627 5623 5620 5616 5613 5610 5606 5603 5600 5597 5593 5590 5586 5583 5579 5576 5572 5568 5565 5561 5558 5554 5550 5546
5675 5674 5670 5669 5668 5664 5659 5656 5653 5650 5648 5645 5642 5639 5636 5633 5630 5626 5623 5619 5615 5611 5608 5604 5601 5598 5594 5591 5587 5585 5581 5578 5574 5571 5568 5564 5561 5557 5554 5550 5546 5542 5539 5535
5665 5662 5659 5657 5656 5652 5648 5645 5642 5639 5636 5633 5630 5627 5624 5621 5618 5614 5611 5607 5603 5599 5596 5592 5589 5586 5582 5578 5575 5572 5569 5565 5562 5559 5555 5552 5549 5545 5542 5538 5535 5531 5527 5523
5654 5650 5647 5645 5644 5640 5638 5634 5631 5627 5624 5621 5618 5615 5611 5608 5605 5601 5598 5594 5590 5587 5583 5579 5576 5573 5570 5566 5562 5559 5556 5553 5550 5546 5543 5540 5537 5533 5530 5527 5523 5519 5515 5511
5642 5638 5634 5633 5631 5627 5625 5622 5618 5615 5612 5609 5605 5602 5598 5594 5591 5588 5584 5580 5576 5573 5570 5566 5563 5560 5556 5553 5550 5546 5543 5540 5537 5534 5531 5528 5525 5521 5518 5514 5511 5507 5504 5500